THORAD DELTA 1 DEB, 8398

Orbit data source: Space-Track

THORAD DELTA 1 DEB, 8398 is space debris in SSO originally from a launch on Fri, 15 Nov 1974 UTC launched from the Air Force Western Test Range (AFWTR). Debris objects in space refer to the collection of defunct objects orbiting the Earth. Examples of debris include non-operational satellites, rocket bodies, and fragments generated from explosions, collisions, or faulty payload assembly.

Loading next visibility...
Identifier
8398, 1974-089CA
Orbit
SSO
Country
Flag of USUS
Related business
Manufacturer
Unknown
Mission
Spacecraft
Bus & Motor
Unknown
Mass
Unknown
Launch date (UTC)
1974-11-15 (51 years ago)
Launch vehicle
Unknown
Launch site
Air Force Western Test Range (AFWTR)
Object type
Payload
Rocket body
Debris
Shape & HBR
Unknown shape, 1.2 m
Radar Cross Section
Large (>1 m²)

Expand to show TLE details & history
Last TLE update: 9 hours ago

TLE from 9 hours ago
0 THORAD DELTA 1 DEB
1  8398U 74089CA  25288.72167094 -.00000022  00000-0  20541-3 0  9997
2  8398 102.5760 272.9118 0077389  46.6412 125.8172 12.26590093 35267
Epoch: 2025-10-15T17:19Z
TLE epoch observation values (Epoch: 2025-10-15T17:19:12.369Z)
Latitude
6.59617°
Longitude
170.08966°
Altitude
1,602.148 km
Speed
7.053 km/s
True Right ascension
06h 17m 31s
True Declination
6° 33' 40"
Sunlit
Object was in daylight at epoch
Visualization orbit readout
Latitude
Unknown
Longitude
Unknown
Altitude
Unknown
Speed
Unknown
Apparent Right ascension
Unknown
Apparent Declination
Unknown
Sunlit
N/A
Visualization observer readout
Local Sidereal Time
20:45:02
Azimuth
Unknown
Elevation
Unknown
Doppler factor
Unknown
Orbital elements
Apogee altitude
1,623.038 km
Perigee altitude
1,500.149 km
Semi-major axis
7,939.73 km
Eccentricity
0.00774
Inclination
102.576°
RAAN
272.9118°
Arg. of periapsis
46.6412°
True anomaly
126.53224°
Mean anomaly
125.8172°
Eccentric anomaly
126.17512°
Mean motion
3.06785 °/min
Orbital period
117.35 mins
BSTAR
0.00020541
Loading maneuver chart data...
Computing Atmospheric mass density...

Documentation

Showing up to 5 results
|